Location: Avon
(37.7514°N, 90.2235°W)
Time: 18:37:27
(UTC+00:00)

A-11 Canister half - Visible Passes

Search period start: 09 November 2025 00:00
Search period end: 19 November 2025 00:00
Orbit: 1526 x 1682 km, 47.3° (Epoch: 08 November)

Date Brightness Start Highest point End Pass type
(mag) Time Alt. Az. Time Alt. Az. Time Alt. Az.
09 Nov 9.0 02:02:25 10° WSW 02:11:50 79° WNW 02:11:50 79° WNW visible
09 Nov 11.1 04:09:04 10° W 04:10:08 14° WNW 04:10:08 14° WNW visible
09 Nov 10.6 08:37:19 18° SE 08:37:19 18° SE 08:39:14 10° SE visible
09 Nov 10.3 10:35:40 16° SW 10:35:40 16° SW 10:39:06 10° SSW visible
09 Nov 9.7 23:37:17 10° SSW 23:46:00 36° SE 23:53:11 14° ENE visible
10 Nov 8.9 01:40:32 10° WSW 01:50:28 84° NNW 01:51:30 74° NE visible
10 Nov 10.8 03:47:06 10° W 03:49:48 20° WNW 03:49:48 20° WNW visible
10 Nov 11.1 08:17:21 11° SE 08:17:21 11° SE 08:17:29 10° SE visible
10 Nov 10.5 10:15:40 14° SSW 10:15:40 14° SSW 10:17:46 10° SSW visible
10 Nov 9.8 23:15:38 10° S 23:24:12 34° SE 23:32:34 10° ENE visible
11 Nov 8.9 01:18:39 10° WSW 01:28:37 86° NNW 01:31:06 57° NE visible
11 Nov 10.4 03:25:10 10° W 03:29:24 28° WNW 03:29:24 28° WNW visible
11 Nov 10.7 09:55:40 12° SSW 09:55:40 12° SSW 09:56:24 10° SSW visible
12 Nov 9.0 00:56:46 10° SW 01:06:46 89° NNW 01:10:39 43° ENE visible
12 Nov 10.1 03:03:12 10° W 03:08:56 36° WNW 03:08:56 36° WNW visible
13 Nov 9.0 00:34:54 10° SW 00:44:55 88° SSE 00:50:09 33° ENE visible
13 Nov 9.8 02:41:15 10° W 02:48:27 44° NW 02:48:27 44° NW visible
14 Nov 9.0 00:13:02 10° SW 00:23:04 85° SE 00:29:37 24° ENE visible
14 Nov 9.5 02:19:17 10° W 02:27:54 51° NNW 02:27:54 51° NNW visible
14 Nov 11.3 04:26:03 10° WNW 04:26:11 10° WNW 04:26:11 10° WNW visible
14 Nov 9.1 23:51:12 10° SW 00:01:13 82° SE 00:09:02 18° ENE visible
15 Nov 9.3 01:57:19 10° W 02:06:56 53° NNW 02:07:19 53° N visible
15 Nov 11.0 04:04:08 10° WNW 04:05:36 15° WNW 04:05:36 15° WNW visible
15 Nov 9.1 23:29:20 10° SW 23:39:22 79° SE 23:48:25 13° ENE visible
16 Nov 9.3 01:35:22 10° W 01:45:02 54° NNW 01:46:43 49° NNE visible
16 Nov 10.8 03:42:13 10° WNW 03:45:00 21° WNW 03:45:00 21° WNW visible
16 Nov 9.2 23:07:31 10° SW 23:17:32 76° SE 23:27:17 10° ENE visible
17 Nov 9.4 01:13:25 10° W 01:23:08 55° NNW 01:26:05 43° NNE visible
17 Nov 10.5 03:20:19 10° WNW 03:24:22 27° NW 03:24:22 27° NW visible
18 Nov 9.4 00:51:28 10° W 01:01:13 57° NNW 01:05:26 35° NE visible
18 Nov 10.2 02:58:24 10° WNW 03:03:43 33° NW 03:03:43 33° NW visible
